Regional Weather Roundup
Issued by NWS

Home | Current Version | Previous Version | Text Only | Print | Product List | Glossary Off
Versions: 1 2 3 4 5 6 7 8 9 10 11 12 13 14 15 16 17 18 19 20 21 22 23 24 25 26 27 28 29 30 31 32 33 34 35 36 37 38 39 40 41 42 43 44 45 46 47 48 49 50

000
ASUS44 KMEG 230810
RWRTN
TENNESSEE HOURLY STATE WEATHER ROUNDUP
NATIONAL WEATHER SERVICE MEMPHIS TN
300 AM CDT FRI JUN 23 2017

TNZ002-004-019-021-049-052-054-088>092-230900-
WEST TENNESSEE

CITY           SKY/WX    TMP DP  RH WIND       PRES   REMARKS
MEMPHIS INTL   CLOUDY    78  74  87 S12G24    29.72F
NWS MEMPHIS      N/A     77 N/A N/A MISG        N/A
JACKSON        PTCLDY    77  75  93 S9G21     29.77F
SOMERVILLE     CLOUDY    77  73  88 S8G18     29.75F
COVINGTON      MOCLDY    77  73  88 S10G17    29.74F
UNION CITY     CLOUDY    77  73  88 S14       29.74F
BOLIVAR        MOCLDY    75  73  94 SE9       29.78S
PARIS          CLOUDY    77  73  88 S9        29.77F
HUNTINGDON     MOCLDY    77  73  88 S10G16    29.78F
LEXINGTON      PTCLDY    77  73  88 S9        29.80F
SELMER         MOCLDY    75  73  94 S10G17    29.80F
SAVANNAH       CLOUDY    79  73  83 S14       29.81S
$$

TNZ008-025-027-028-033-062-065-066-230900-
NORTH MIDDLE TENNESSEE

CITY           SKY/WX    TMP DP  RH WIND       PRES   REMARKS
NASHVILLE      CLOUDY    78  72  81 S12       29.85F
PORTLAND       MOCLDY    75  73  94 S13G20    29.83F
CLARKSVILLE    MOCLDY    76  71  85 S8        29.81F
SMYRNA         MOCLDY    76  73  91 S6        29.86F
COOKEVILLE     CLOUDY    75  72  88 S7        29.90F
GALLATIN       CLOUDY    77  73  88 VRB7G13   29.87F
CROSSVILLE     RAIN      71  69  93 VRB7G18   29.96F FOG
$$

TNZ061-075-076-078-094-096-097-230900-
SOUTH MIDDLE TENNESSEE

CITY           SKY/WX    TMP DP  RH WIND       PRES   REMARKS
FAYETTEVILLE   CLOUDY    75  73  94 S14       29.90F
TULLAHOMA        N/A     73  72  94 S8        29.92F
WINCHESTER     CLOUDY    73  72  94 S9          N/A
MCMINNVILLE    CLOUDY    75  75 100 VRB5      29.92S
COLUMBIA       CLOUDY    77  73  88 S10G20    29.83F
SHELBYVILLE    CLOUDY    77  73  88 S12       29.88F
$$

TNZ017-018-042-046-047-230900-
NORTHEAST TENNESSEE

CITY           SKY/WX    TMP DP  RH WIND       PRES   REMARKS
TRI CITIES     CLOUDY    70  69  97 CALM      29.98F
ELIZABETHTON   CLOUDY    70  68  94 CALM      30.00F
$$

TNZ012-013-036-069-073-074-230900-
CENTRAL EAST TENNESSEE

CITY           SKY/WX    TMP DP  RH WIND       PRES   REMARKS
KNOXVILLE      CLOUDY    73  69  87 SW12      29.94F
OAK RIDGE      LGT RAIN  73  71  93 CALM      29.95F
DOWNTOWN KNOXV FOG       72  72 100 CALM      29.93F VSB 1/2
GATLINBURG     MOCLDY    70  70 100 CALM      29.94F
MORRISTOWN     CLOUDY    72  72 100 CALM      29.95F
JACKSBORO        N/A     73  72  94 VRB5      29.97F FOG
$$

TNZ083-085-099-230900-
SOUTHEAST TENNESSEE

CITY           SKY/WX    TMP DP  RH WIND       PRES   REMARKS
CHATTANOOGA    CLOUDY    76  72  87 S7        29.95F
$$

SKY/WX REPORTED AS FAIR MEANS FEW OR NO CLOUDS BELOW
12 THOUSAND FEET.





USA.gov is the U.S. government's official web portal to all federal, state and local government web resources and services.